Orbital Elements at Epoch 2459200.5 (2020-Dec-17.0) TDB
Reference: JPL 31 (heliocentric ecliptic J2000)
Element | Value | Uncertainty (1-sigma) | Units |
e | .128868290643566 | 3.9655e-08 | |
a | 2.395162037031594 | 7.7055e-09 | au |
q | 2.086501599504971 | 9.7e-08 | au |
i | 1.519340166489171 | 3.8372e-06 | deg |
node | 24.91921817420442 | 0.00013108 | deg |
peri | 177.7709786419532 | 0.00013179 | deg |
M | 287.6258261650268 | 1.4869e-05 | deg |
tp | 2459472.696097652452 (2021-Sep-15.19609765) | 5.6316e-05 | TDB |
period | 1353.944231243587 3.71 | 6.5337e-06 1.789e-08 | d yr |
n | .2658898289107098 | 1.2831e-09 | deg/d |
Q | 2.703822474558216 | 8.6985e-09 | au |
|
| | Orbit Determination Parameters
Additional Information
|